TimeHST,TemperatureF,Dew PointF,Humidity,Sea Level PressureIn,VisibilityMPH,Wind Direction,Wind SpeedMPH,Gust SpeedMPH,PrecipitationIn,Events,Conditions,WindDirDegrees,DateUTC
12:56 AM,68.0,57.9,70,30.09,10.0,Variable,3.5,-,N/A,,Clear,0,2013-02-02 10:56:00
1:56 AM,69.1,55.9,63,30.08,10.0,Calm,Calm,-,N/A,,Clear,0,2013-02-02 11:56:00
2:56 AM,70.0,55.9,61,30.07,10.0,Variable,3.5,-,N/A,,Clear,0,2013-02-02 12:56:00
3:56 AM,66.0,55.9,70,30.07,10.0,ESE,5.8,-,N/A,,Clear,120,2013-02-02 13:56:00
4:56 AM,64.9,55.9,73,30.08,10.0,East,3.5,-,N/A,,Clear,100,2013-02-02 14:56:00
5:56 AM,66.0,57.9,75,30.10,10.0,SE,5.8,-,N/A,,Clear,140,2013-02-02 15:56:00
6:56 AM,66.9,57.9,73,30.12,10.0,SE,5.8,-,N/A,,Clear,130,2013-02-02 16:56:00
7:56 AM,68.0,59.0,73,30.14,10.0,East,4.6,-,N/A,,Clear,90,2013-02-02 17:56:00
8:56 AM,75.0,57.9,55,30.16,10.0,Calm,Calm,-,N/A,,Clear,0,2013-02-02 18:56:00
9:56 AM,78.1,59.0,52,30.16,10.0,SSE,4.6,-,N/A,,Clear,150,2013-02-02 19:56:00
10:56 AM,79.0,59.0,50,30.16,10.0,NE,4.6,-,N/A,,Clear,50,2013-02-02 20:56:00
11:56 AM,81.0,61.0,50,30.14,10.0,North,10.4,-,N/A,,Scattered Clouds,360,2013-02-02 21:56:00
12:56 PM,79.0,62.1,56,30.12,10.0,NNW,11.5,-,N/A,,Scattered Clouds,340,2013-02-02 22:56:00
1:56 PM,80.1,64.0,58,30.09,10.0,NNW,12.7,-,N/A,,Partly Cloudy,340,2013-02-02 23:56:00
2:56 PM,80.1,62.1,54,30.08,10.0,NNW,11.5,-,N/A,,Clear,340,2013-02-03 00:56:00
3:56 PM,79.0,63.0,58,30.08,10.0,NNW,10.4,-,N/A,,Clear,340,2013-02-03 01:56:00
4:56 PM,79.0,63.0,58,30.09,10.0,NNW,8.1,-,N/A,,Clear,340,2013-02-03 02:56:00
5:56 PM,78.1,63.0,60,30.10,10.0,North,4.6,-,N/A,,Clear,10,2013-02-03 03:56:00
6:56 PM,75.9,64.9,69,30.11,10.0,Calm,Calm,-,N/A,,Partly Cloudy,0,2013-02-03 04:56:00
7:56 PM,71.1,66.0,84,30.13,10.0,ENE,3.5,-,N/A,,Partly Cloudy,70,2013-02-03 05:56:00
8:56 PM,70.0,62.1,76,30.15,10.0,Calm,Calm,-,N/A,,Clear,0,2013-02-03 06:56:00
9:56 PM,70.0,64.0,81,30.15,10.0,Calm,Calm,-,N/A,,Clear,0,2013-02-03 07:56:00
10:56 PM,66.9,64.9,93,30.15,10.0,SE,3.5,-,N/A,,Clear,130,2013-02-03 08:56:00
11:56 PM,66.0,60.1,81,30.15,10.0,East,3.5,-,N/A,,Clear,90,2013-02-03 09:56:00